ECMWFFLT1_sfc_dewp_132.txt.gz
Dewpoint
63 63 63 64 64 64 63 61 60 60 60 59 58 57 57 57 57 56 56 56 55 55 56 54 54 54 55 55 54 54 54 54 52 50 48 46 43 42 52 47 51 47 47 47 43 36 37 32 32 36 41 43 39 39 44 41 39 41 42 42 42 43 42
63 63 64 64 63 62 61 59 59 58 58 58 57 56 56 56 57 55 55 55 56 56 56 55 54 53 51 51 51 51 51 50 51 50 47 45 44 41 44 44 45 45 45 46 47 46 43 38 39 35 35 40 41 44 44 44 44 42 45 44 48 47 48
63 63 63 63 62 61 59 58 58 57 56 56 55 55 55 55 55 56 56 55 54 56 56 54 53 53 51 51 50 50 50 50 49 49 48 47 47 47 45 45 45 44 42 42 43 42 41 42 39 37 40 36 35 40 45 43 42 44 43 42 42 41 34
63 63 62 61 61 60 58 58 57 56 56 55 55 55 55 55 56 57 56 55 55 57 54 52 52 51 51 50 50 49 48 48 48 48 48 47 46 46 45 45 44 42 41 41 40 42 40 38 38 38 39 40 37 41 42 45 48 45 40 41 39 33 35
63 63 62 61 60 59 58 57 57 56 55 55 54 54 54 54 54 54 55 54 55 53 51 51 51 51 50 49 49 48 47 47 47 47 46 45 45 45 44 44 44 44 44 42 43 42 40 40 38 37 37 38 41 44 46 41 41 33 29 32 36 35 34
63 63 62 61 60 59 58 57 56 55 54 53 53 53 54 53 53 53 53 54 54 53 51 51 50 50 50 50 49 48 47 46 45 45 44 44 44 43 43 44 43 43 43 43 43 41 41 41 38 37 36 38 37 39 37 39 33 29 28 30 30 35 35
62 62 62 61 60 59 58 57 56 55 54 53 53 53 54 53 52 52 51 51 52 51 51 50 50 50 49 48 48 47 46 46 46 46 45 45 44 44 43 41 41 42 42 42 41 41 40 38 37 35 36 37 38 32 33 22 26 26 28 30 31 33 35
62 62 61 61 60 58 58 57 56 55 53 53 53 53 55 52 52 50 51 51 50 50 50 50 50 49 49 48 48 48 48 46 46 46 45 44 44 43 43 42 43 42 41 41 41 41 40 39 38 39 35 30 31 35 36 36 32 29 29 30 30 33 35
62 62 61 60 60 59 58 57 56 55 54 54 54 54 54 52 50 49 50 49 50 49 49 48 48 48 48 48 48 47 46 47 45 44 44 43 42 42 42 42 41 41 42 42 42 41 40 40 40 40 39 31 28 28 35 33 35 30 32 32 32 33 35
62 61 61 60 60 59 59 58 56 55 54 54 54 54 53 51 49 48 48 48 48 48 48 48 48 48 48 47 46 45 45 45 44 42 42 41 41 41 40 40 40 41 41 42 41 42 42 40 39 38 39 37 34 31 32 31 33 31 33 37 35 34 37
62 61 61 60 60 59 59 58 56 55 54 54 53 54 51 50 49 51 48 48 48 47 47 47 47 47 46 46 45 45 45 44 43 43 43 42 41 42 43 42 40 39 40 38 39 41 41 39 38 37 38 38 37 34 34 32 31 34 34 37 37 35 37
62 61 61 61 60 59 59 57 56 55 54 53 54 52 50 49 48 48 48 47 47 47 46 46 46 46 46 45 46 45 45 43 43 43 43 42 42 41 40 40 40 39 39 38 37 38 39 39 40 39 38 38 37 36 35 34 30 33 37 35 37 39 39
62 61 61 60 60 59 58 57 56 54 53 54 52 51 50 49 48 47 47 47 46 46 45 45 45 46 45 45 45 44 44 43 42 42 42 42 42 41 40 40 40 40 40 40 40 40 38 41 39 39 38 38 37 37 37 35 33 33 37 36 37 39 37
61 61 61 60 60 59 58 57 55 54 54 53 51 50 49 48 47 47 47 47 45 45 45 45 46 45 45 44 45 44 43 42 42 42 42 41 41 41 41 40 40 41 40 40 39 39 41 41 40 40 40 38 37 37 36 35 34 35 37 39 39 38 38
62 61 60 60 60 59 58 56 55 54 53 52 50 50 49 48 47 47 47 46 45 45 45 45 45 44 44 44 44 44 43 42 42 42 42 41 41 41 40 39 39 39 38 38 39 39 38 36 34 36 38 37 36 37 38 36 36 34 33 37 36 37 36
61 60 60 60 60 59 57 55 55 53 52 51 50 49 49 48 47 47 47 46 45 46 45 45 45 44 44 44 43 43 43 42 42 42 41 40 40 40 39 39 38 39 40 38 39 39 39 39 36 35 37 39 37 38 39 38 36 35 35 35 37 35 36
61 60 60 60 59 58 56 55 54 53 52 51 50 50 49 48 47 46 46 46 46 46 45 45 44 43 44 43 43 42 42 42 41 41 40 40 40 39 39 39 40 41 40 38 38 38 38 38 36 36 36 38 37 38 38 38 37 35 35 32 34 34 37
61 60 60 60 59 57 55 54 53 52 51 50 50 49 49 47 46 46 46 45 45 45 45 44 43 44 44 43 42 42 41 41 41 40 41 40 45 40 41 40 41 40 39 38 37 36 37 36 36 36 36 37 37 38 38 38 38 37 34 32 34 37 37
61 60 60 59 58 56 55 54 53 52 51 50 49 49 48 47 46 45 45 45 45 45 44 44 43 43 43 43 43 42 42 41 41 40 41 43 42 42 41 40 41 40 37 37 37 38 39 38 37 36 35 35 36 36 35 35 36 35 32 32 32 34 36
61 60 59 58 57 56 54 54 53 52 51 50 49 48 47 46 46 45 45 45 45 45 44 44 43 42 42 43 42 41 41 41 41 41 42 43 42 42 41 42 42 40 38 37 37 37 38 38 37 37 38 36 35 34 34 34 33 32 32 32 33 34 34
60 60 59 57 56 55 54 53 53 52 51 50 49 48 47 46 45 45 45 45 45 45 44 44 42 42 42 42 42 41 41 41 41 41 42 43 43 41 40 39 38 38 37 37 36 37 37 36 34 34 35 35 35 32 32 33 32 32 31 32 32 32 34
60 59 58 57 56 54 54 53 53 52 51 50 49 48 47 46 45 44 44 44 45 45 44 44 42 42 42 41 41 41 41 41 41 41 42 42 39 37 36 35 34 35 42 44 45 43 41 40 33 31 34 36 35 33 32 32 33 32 32 31 31 33 32
59 58 57 56 55 54 53 53 52 51 50 50 49 48 47 46 44 44 44 44 44 45 45 44 45 45 44 42 41 41 42 41 41 42 42 38 35 34 34 35 43 45 44 45 46 44 43 44 41 33 32 34 33 32 31 30 32 34 31 29 30 31 31
59 57 56 56 55 54 53 52 51 51 50 49 48 48 46 45 44 43 43 43 44 44 44 43 44 41 40 43 42 42 41 41 41 42 39 35 33 34 37 40 41 41 41 40 36 38 39 39 39 41 42 42 40 32 31 30 33 33 35 30 31 31 31
58 57 56 55 54 54 53 52 51 50 49 48 48 47 46 45 44 43 43 43 43 44 44 45 40 40 40 40 43 42 41 41 42 41 38 34 34 34 34 36 37 38 31 28 29 29 33 33 33 34 34 35 36 37 41 37 38 32 33 30 30 31 31
58 56 55 55 54 53 52 51 50 50 49 48 47 46 46 45 44 44 43 42 43 43 43 42 40 40 39 40 40 42 41 42 42 41 38 34 32 32 32 34 34 36 36 33 39 28 27 30 37 37 37 38 37 36 33 33 36 38 33 33 31 31 32
57 56 55 54 54 53 52 51 50 50 49 48 47 46 46 45 44 44 43 42 42 43 42 42 39 39 39 39 39 41 41 42 42 42 41 36 33 30 28 29 33 34 38 41 34 31 31 33 35 36 37 35 34 37 39 37 35 36 38 34 31 30 32
57 56 55 54 53 52 52 51 50 49 48 48 46 46 45 44 44 44 43 42 42 42 43 41 39 39 39 39 39 41 42 43 44 45 42 40 38 36 35 35 35 35 39 44 42 35 31 32 34 37 37 37 37 37 38 37 36 35 35 35 31 30 31
56 55 54 54 53 52 51 50 49 49 48 48 47 46 45 45 45 44 43 42 42 41 42 39 38 39 39 39 39 44 43 43 43 43 42 39 39 38 35 32 32 35 40 42 45 42 41 39 38 39 40 41 41 41 41 45 41 39 37 34 33 32 32
56 55 54 53 52 52 51 50 49 49 48 47 46 45 45 45 45 44 43 42 41 41 41 39 38 39 39 39 42 44 44 43 43 44 43 41 39 38 36 33 34 38 41 41 41 40 39 40 36 36 37 39 41 41 40 38 39 38 38 37 36 36 36
55 55 54 53 52 52 51 50 49 49 47 46 46 45 46 45 46 45 43 42 41 41 40 40 39 39 39 41 43 45 45 44 44 43 43 44 43 40 39 43 42 41 41 39 38 37 36 36 31 33 36 37 39 40 37 37 37 37 38 38 37 37 37
55 55 54 54 53 52 51 50 49 48 47 46 46 46 46 45 46 46 44 43 46 41 40 40 39 39 40 40 43 45 45 44 44 43 43 44 45 43 41 46 47 44 42 40 36 35 34 33 29 34 36 37 39 38 35 34 34 34 34 34 33 35 35
55 55 54 54 53 52 51 50 49 48 47 46 46 46 46 45 46 46 45 43 43 41 40 40 41 39 40 40 42 44 44 43 43 43 43 44 44 44 43 44 46 41 40 38 35 33 32 33 31 35 36 35 36 37 38 35 38 36 34 35 33 35 36
55 54 54 53 53 51 50 49 48 47 46 46 46 47 47 46 46 46 45 44 42 40 41 40 41 39 39 39 40 42 43 42 42 43 43 43 42 42 43 44 45 42 38 36 34 32 32 33 35 35 34 34 36 39 36 34 38 39 35 36 36 35 34
55 54 54 53 52 51 50 49 48 47 47 46 46 46 47 46 46 46 44 43 41 41 43 43 42 39 38 39 40 41 43 43 42 43 43 43 41 41 42 44 43 40 37 35 33 31 32 33 34 37 34 34 36 34 35 39 37 35 35 35 34 33 33
54 54 53 52 52 51 49 49 48 47 47 47 47 46 46 46 46 45 44 43 42 43 44 44 41 41 38 38 38 39 40 41 39 43 43 43 42 42 42 43 43 41 36 34 32 31 31 32 34 32 33 34 35 34 36 36 34 33 32 32 34 32 32
54 53 52 52 51 50 49 49 48 48 47 46 46 46 46 46 45 45 45 44 44 44 44 44 42 40 39 37 37 38 38 39 39 41 42 42 43 42 39 40 41 38 36 35 32 31 31 32 30 31 33 33 34 35 36 34 32 33 32 33 32 31 30

ECMWFFLT1_sfc_dewp_135.txt.gz
Dewpoint
62 63 63 65 64 64 63 62 62 61 60 60 59 59 59 59 58 57 58 58 57 56 57 54 54 54 55 55 55 53 53 52 50 48 49 50 45 45 51 48 48 46 44 44 39 33 34 33 34 35 39 42 39 39 44 43 40 42 41 42 44 41 40
63 63 63 64 64 63 62 60 61 59 59 58 58 58 58 58 58 56 56 57 57 56 57 55 55 54 53 53 54 53 53 52 51 50 50 50 48 46 45 44 45 44 44 44 45 43 40 35 34 35 35 37 38 40 42 43 43 43 45 43 47 45 47
62 62 63 64 63 62 61 60 59 58 58 57 57 57 57 57 56 56 56 56 57 57 56 55 53 52 51 51 53 53 53 52 51 51 49 48 47 44 45 45 44 42 41 41 41 41 41 39 34 34 36 33 30 34 43 44 44 44 43 44 38 33 33
62 62 63 63 62 61 60 58 58 57 57 56 56 56 56 56 56 57 56 56 56 58 57 55 53 51 51 50 51 52 52 52 50 49 48 47 46 46 45 45 44 42 41 40 40 41 40 38 37 36 38 37 32 33 42 44 43 35 39 37 32 33 36
62 62 62 62 62 61 59 58 57 56 55 55 55 54 55 56 56 55 56 56 56 55 54 53 52 51 51 50 49 49 49 48 48 50 47 46 45 45 44 44 43 43 43 41 41 41 39 39 38 37 37 39 39 41 44 31 30 31 31 32 34 35 35
63 63 63 62 62 61 59 57 56 56 55 54 54 54 54 54 55 54 54 55 55 54 53 53 52 51 49 48 48 47 47 47 47 46 45 45 44 44 43 43 44 43 42 42 43 42 40 40 39 37 37 39 38 39 37 32 28 29 31 31 31 34 36
63 63 63 62 61 60 59 57 56 56 54 54 53 53 53 53 54 54 54 54 53 54 53 52 51 50 49 48 48 46 46 46 45 45 44 44 43 43 43 42 42 42 41 42 41 40 39 38 36 36 36 35 36 36 32 27 29 26 27 29 31 35 38
63 63 63 62 61 60 59 57 56 55 54 53 53 53 53 53 53 53 53 53 53 52 52 51 51 50 50 49 48 47 47 46 45 45 44 43 43 42 41 41 42 41 41 40 40 39 39 37 37 37 34 33 31 33 35 34 34 31 30 31 32 35 37
63 63 62 62 61 60 59 58 57 56 54 53 53 53 52 52 52 52 53 52 52 52 52 51 50 49 48 47 47 47 46 48 45 44 43 43 42 42 42 41 40 40 41 41 40 40 39 39 40 38 34 33 31 27 33 30 33 31 32 32 33 35 37
62 62 62 61 60 59 58 57 57 55 54 53 54 53 52 51 51 51 51 51 51 51 50 50 50 48 48 48 46 46 45 45 45 43 43 42 42 42 41 40 40 41 40 41 40 40 40 39 39 38 35 32 32 28 29 29 31 30 33 36 33 33 39
62 62 61 60 60 59 58 57 56 54 53 54 54 53 51 50 50 53 50 50 50 51 49 49 49 48 47 46 46 45 45 44 43 43 43 42 41 41 42 41 41 40 40 39 39 40 39 38 37 38 38 37 32 29 31 28 31 33 33 35 36 33 37
62 62 61 60 59 58 58 56 55 55 54 54 54 53 50 49 49 49 49 49 49 50 49 48 48 47 46 45 46 45 44 43 42 41 41 41 41 41 40 39 38 38 38 39 39 39 39 38 37 37 37 38 38 34 33 33 32 34 35 33 36 38 38
62 61 61 60 59 59 58 57 55 54 53 54 53 51 49 48 48 47 48 48 48 48 48 48 47 46 46 46 46 44 43 42 41 41 41 41 41 40 39 38 38 37 37 37 37 38 38 39 37 36 36 36 37 37 36 33 33 33 36 35 36 38 38
62 61 61 60 59 59 58 57 55 54 53 53 52 51 49 48 47 47 47 48 47 47 46 46 46 46 45 45 44 43 43 42 41 41 42 40 40 39 39 38 38 38 38 38 38 39 39 38 38 38 37 36 36 36 35 34 33 33 34 37 38 37 38
62 61 61 60 60 59 58 57 55 54 53 53 52 50 49 48 47 47 46 46 46 46 46 46 46 45 45 44 44 44 42 41 41 41 40 39 40 40 39 38 39 39 38 38 38 38 37 36 36 36 36 36 36 36 37 35 34 33 31 35 35 36 35
62 61 61 60 60 59 58 57 55 54 53 52 51 50 49 48 47 47 46 46 45 45 45 45 45 45 44 44 43 43 43 41 41 40 39 39 40 40 39 40 39 39 40 39 39 38 37 36 37 36 37 37 37 37 38 36 35 33 32 31 35 33 35
62 61 61 60 60 59 58 56 55 54 53 52 51 50 49 48 47 47 46 45 45 45 45 45 45 44 44 44 43 42 42 41 41 40 39 39 39 39 38 38 38 39 39 37 37 36 37 36 36 37 37 37 37 37 37 37 35 35 34 30 31 34 35
61 61 61 60 60 59 57 56 55 54 53 51 50 50 49 48 47 46 46 45 45 45 45 45 44 44 44 44 43 42 42 41 41 40 40 40 43 38 38 37 38 38 37 36 36 35 35 35 36 36 36 36 37 37 38 37 36 35 33 31 32 35 36
61 61 61 60 60 58 57 56 55 54 52 51 50 49 48 47 47 46 46 45 45 45 44 44 44 43 44 43 43 42 42 42 41 40 40 41 41 39 39 39 40 38 37 36 35 36 35 35 35 35 35 36 35 35 34 34 34 33 32 33 34 33 34
61 61 60 60 59 58 56 55 54 53 52 51 50 49 48 47 48 46 46 45 45 45 44 44 43 43 43 43 42 42 42 41 41 41 41 41 40 40 40 40 40 38 37 37 37 36 36 36 36 35 37 35 34 33 33 33 33 32 33 33 34 35 34
61 61 61 60 59 57 56 55 54 53 52 50 50 49 48 47 47 46 46 45 45 45 44 44 43 43 43 43 42 41 41 41 40 41 41 41 41 41 41 41 39 38 38 38 37 37 35 34 35 35 35 34 33 32 32 33 32 32 32 34 33 33 35
62 61 60 59 58 57 56 55 54 53 51 51 50 49 48 47 46 45 45 45 45 45 44 44 43 43 43 42 42 41 41 41 40 41 41 41 40 39 39 39 38 38 42 44 44 41 39 39 34 33 35 35 33 32 32 32 32 31 32 31 32 34 33
61 61 60 59 58 57 56 55 53 52 51 51 50 49 48 47 46 45 45 45 45 45 44 44 46 45 45 43 42 41 42 41 41 42 42 39 37 37 36 36 42 46 48 48 46 44 42 42 42 35 34 34 32 30 30 31 31 30 31 30 32 32 31
61 60 59 58 57 56 55 54 53 52 51 50 50 49 47 46 45 45 44 44 44 45 45 44 44 41 41 43 42 41 41 41 42 42 39 36 35 36 38 41 43 47 48 48 44 42 42 41 39 40 40 38 36 30 30 31 32 33 36 33 32 33 31
61 60 59 58 57 56 55 54 53 52 51 50 50 49 47 46 45 45 44 44 44 45 44 45 41 40 40 41 43 42 41 42 42 41 39 37 36 38 39 39 37 36 34 37 39 39 39 38 37 38 39 39 40 39 39 36 37 34 34 32 32 33 33
60 59 59 57 56 55 54 54 53 52 51 50 49 48 47 46 45 44 44 44 44 44 44 43 40 40 40 40 41 44 43 42 41 38 36 37 38 40 38 37 36 36 34 40 40 30 31 33 37 38 37 37 36 33 31 34 40 39 33 33 33 32 32
60 59 58 57 56 55 54 53 53 52 51 50 49 48 47 46 45 44 44 43 44 44 44 43 40 40 39 39 39 42 43 42 41 37 37 40 40 39 39 37 33 32 32 35 30 26 28 27 29 32 35 35 34 39 38 34 34 37 39 35 33 32 34
59 58 57 56 55 54 54 53 52 51 50 49 48 47 46 45 44 44 44 43 43 43 44 42 39 39 39 39 39 42 43 43 40 38 38 39 38 37 36 34 29 25 29 35 29 26 26 27 29 32 32 34 36 36 37 38 37 33 35 35 32 32 33
59 58 57 56 55 54 53 53 52 51 50 49 48 48 47 46 45 44 43 43 43 43 43 40 39 39 39 39 39 45 42 42 42 40 40 39 36 35 33 30 26 23 26 35 35 33 34 32 32 33 36 37 39 40 41 45 42 39 37 34 32 31 32
58 57 56 55 55 54 53 52 52 51 50 49 48 47 46 46 45 44 43 43 42 42 43 40 38 39 39 38 40 43 43 43 42 41 39 38 36 34 33 31 27 24 28 33 36 34 35 38 36 37 38 37 39 41 39 39 39 39 38 36 35 35 35
58 57 56 55 54 54 53 53 51 50 50 48 47 47 46 46 45 44 43 43 42 42 42 41 38 38 38 38 42 43 43 42 42 41 40 39 38 36 35 40 37 28 29 34 39 37 37 39 37 37 36 37 37 37 34 35 37 37 38 38 37 37 36
58 57 56 55 55 54 53 52 51 50 50 49 48 47 46 45 46 45 44 43 46 42 41 41 38 38 38 38 42 42 42 41 42 42 41 40 39 39 38 43 44 38 34 39 38 39 38 40 37 36 35 34 34 35 35 33 32 31 32 31 30 34 36
58 57 56 55 55 54 53 52 51 50 50 49 48 47 46 45 45 46 46 44 44 42 41 41 40 38 38 38 41 43 42 41 41 41 41 40 41 41 40 39 42 39 37 38 37 37 37 38 36 34 34 33 32 33 36 33 35 33 34 36 34 35 37
57 57 56 56 54 53 52 51 50 50 49 49 47 47 46 46 45 46 45 44 43 42 41 40 40 38 38 39 40 41 42 41 40 41 42 42 43 43 42 42 40 41 38 38 37 36 36 36 36 33 34 32 32 36 37 33 39 41 36 37 36 36 35
58 57 56 55 53 52 52 51 50 50 50 50 47 46 46 45 45 46 45 44 43 41 43 43 42 39 39 39 39 40 42 42 41 41 43 42 43 43 44 44 41 42 39 38 37 36 35 35 34 37 34 33 34 36 36 36 36 36 35 35 34 34 34
57 56 55 54 53 52 51 50 50 49 48 49 48 47 47 46 46 46 44 43 42 42 43 44 41 41 39 39 39 40 40 41 39 44 43 43 43 43 43 43 43 43 39 38 38 37 35 34 34 33 33 34 35 34 36 36 34 33 32 32 33 31 31
55 55 54 54 53 51 50 50 49 49 48 49 48 47 47 47 47 46 45 44 43 43 43 43 41 40 40 38 39 39 39 40 39 43 43 43 44 44 44 43 42 40 38 38 37 36 35 34 32 32 33 34 35 35 36 35 32 31 32 31 31 30 29

ECMWFFLT1_sfc_dewp_138.txt.gz
Dewpoint
63 63 64 65 66 65 65 64 63 63 63 63 62 62 61 61 61 60 60 59 58 58 58 57 56 56 56 55 55 54 53 52 51 50 48 50 50 48 51 50 50 46 43 45 41 36 36 33 36 39 41 44 45 45 47 43 43 45 45 47 42 38 41
63 64 65 65 65 65 64 63 63 62 61 61 61 61 61 60 61 59 59 59 58 58 58 56 56 56 56 55 55 54 53 53 52 52 50 50 50 48 48 47 47 46 46 46 45 45 44 38 36 38 41 40 40 42 45 46 45 46 48 48 48 44 45
62 63 64 65 64 64 63 62 61 60 60 59 60 60 59 59 60 60 59 58 59 59 58 56 56 56 56 56 55 55 54 53 53 53 51 52 51 49 49 48 47 46 45 44 44 44 42 42 38 34 40 39 38 43 47 48 45 46 45 45 39 35 40
62 63 63 64 64 63 62 61 60 60 59 58 58 58 59 58 59 59 59 58 59 59 58 57 56 56 56 56 55 55 54 53 52 52 53 53 52 50 48 49 48 46 46 44 43 43 44 42 41 38 41 36 35 37 42 42 41 38 38 40 40 40 41
62 63 63 63 63 63 62 60 59 58 57 57 57 57 57 57 58 58 58 58 59 58 57 56 55 55 54 54 54 55 54 54 53 53 51 50 50 49 48 49 49 48 47 47 45 44 43 43 42 39 37 41 41 41 41 37 35 36 36 36 37 39 41
62 63 63 63 63 63 62 60 59 58 57 56 56 56 57 57 57 56 57 57 57 57 56 56 55 54 53 52 52 53 53 52 52 52 50 50 49 48 47 47 48 46 47 45 46 45 44 44 42 40 40 40 41 39 35 36 34 33 33 35 35 38 39
62 63 63 63 63 63 62 60 59 59 57 57 56 57 56 57 56 56 56 56 56 56 55 55 54 53 52 51 51 51 51 51 50 50 50 49 48 47 47 46 46 45 45 45 45 44 43 43 41 40 40 38 40 33 36 32 31 31 31 32 35 38 40
63 63 63 63 63 62 61 60 60 59 58 57 57 56 56 56 55 55 55 55 55 55 54 54 53 52 52 51 50 49 49 48 48 49 48 47 46 45 45 45 45 44 44 43 44 43 42 43 42 41 40 38 37 38 38 34 36 34 32 35 34 38 41
63 63 63 62 63 62 61 60 59 59 58 57 56 55 55 55 55 55 55 54 54 54 54 53 52 51 50 49 49 48 48 48 47 46 46 45 45 45 44 44 44 43 43 43 42 42 41 42 43 42 42 39 35 32 37 33 37 35 34 33 35 38 39
63 62 62 62 62 61 60 60 59 58 57 56 55 55 54 54 54 54 54 53 53 53 53 52 51 51 50 50 48 47 47 47 47 45 45 44 44 44 43 43 43 43 43 44 44 43 43 43 42 42 41 40 38 33 32 31 35 37 35 37 35 35 40
63 63 62 62 61 60 59 59 57 56 56 55 55 54 53 53 53 55 53 52 52 53 53 52 51 50 49 48 47 47 47 46 46 46 45 44 43 44 44 44 44 43 44 42 42 43 42 42 41 40 40 41 40 34 34 31 33 37 39 37 38 34 38
63 63 62 61 61 60 59 58 57 57 56 55 55 53 52 52 53 53 52 51 52 52 51 50 50 49 48 47 47 46 46 45 44 44 44 44 43 44 42 41 42 41 42 42 42 42 42 41 41 40 40 40 40 39 35 35 34 38 40 38 40 39 39
63 62 62 61 60 59 58 58 57 56 56 56 54 53 52 52 52 51 51 51 51 51 51 51 50 48 48 47 47 46 45 44 43 43 43 43 43 42 41 40 40 40 41 41 41 41 41 42 41 40 40 40 39 39 38 37 36 36 40 42 40 42 39
62 62 61 61 60 59 58 57 56 57 56 55 54 52 51 51 51 51 50 50 50 50 50 49 49 48 47 47 46 45 44 43 43 43 44 42 41 41 40 39 39 39 40 40 41 41 41 40 40 41 40 40 39 39 38 38 37 37 39 41 42 41 41
62 62 61 60 60 59 58 57 56 56 55 55 54 51 50 50 50 50 49 49 49 49 48 48 48 47 46 46 45 44 44 42 42 42 42 41 41 41 40 38 39 40 40 39 40 40 39 39 37 37 39 39 38 40 41 39 38 38 37 40 40 38 39
62 61 61 60 59 59 58 57 56 55 55 55 54 51 50 49 49 49 49 49 48 48 48 47 47 46 46 45 44 44 44 42 42 42 41 41 40 40 39 40 40 41 41 41 41 40 40 39 39 39 40 40 40 40 40 39 38 37 36 37 39 39 40
62 61 60 60 59 59 58 57 56 55 56 55 54 53 50 48 48 48 48 48 47 47 47 47 46 46 45 44 44 43 43 42 42 41 41 40 40 40 39 40 40 41 42 39 39 39 40 40 40 40 39 40 40 39 41 40 40 38 38 36 37 38 38
62 61 61 60 59 59 58 57 56 55 55 53 52 51 49 48 47 47 47 46 46 46 46 46 46 46 46 45 44 43 43 42 42 41 41 41 43 40 41 39 40 40 39 39 39 38 39 39 39 40 39 39 39 40 40 40 39 38 36 36 36 39 40
62 61 61 60 60 59 58 57 56 55 55 54 51 50 49 48 47 46 46 46 46 46 46 46 45 45 45 45 44 44 43 43 42 41 41 42 42 41 41 40 40 40 38 38 38 38 39 38 38 38 38 38 37 37 37 37 38 37 36 36 38 37 38
62 61 61 60 60 59 58 57 56 55 55 53 51 50 49 48 48 47 46 46 46 45 45 45 45 45 45 44 44 43 43 43 42 42 41 42 41 40 40 40 41 40 38 38 38 38 38 38 39 38 40 38 36 36 36 36 36 36 36 36 37 38 37
62 62 61 61 60 59 58 57 56 55 55 52 51 50 49 48 48 47 46 46 46 46 45 45 44 44 44 44 44 43 43 43 42 42 42 42 42 41 41 41 40 40 39 39 39 39 39 38 39 38 38 37 37 36 35 35 35 34 34 35 36 32 36
62 62 61 61 60 59 58 57 56 55 54 53 52 50 49 48 47 47 46 46 46 46 45 45 44 44 44 44 43 43 43 43 42 42 42 42 42 42 42 41 40 40 42 42 43 42 41 40 37 36 38 38 36 35 35 34 34 34 33 32 32 38 37
62 61 61 60 60 59 57 57 56 54 53 52 51 50 49 48 47 47 46 46 46 46 45 45 46 46 46 44 43 42 43 43 42 42 43 42 41 41 41 41 43 45 46 46 45 42 41 42 42 39 36 38 37 35 33 33 32 32 32 31 31 32 32
62 61 61 60 59 58 57 56 55 54 53 52 51 50 49 48 47 47 46 46 46 46 45 45 44 41 41 43 43 43 43 43 43 43 43 41 40 40 39 39 43 47 48 49 45 41 40 40 40 40 40 40 37 34 32 32 34 37 34 32 34 35 33
61 61 61 60 59 58 57 56 55 54 53 52 51 50 49 48 48 47 46 46 46 46 45 46 41 41 41 41 43 44 43 43 43 43 42 41 40 40 40 42 46 48 47 45 43 41 42 40 39 39 38 38 36 34 35 35 36 36 37 35 35 36 36
61 61 60 59 59 57 56 56 55 54 53 52 51 50 49 49 47 47 46 45 45 46 45 43 40 40 40 40 41 43 43 43 43 42 41 40 40 42 43 44 44 43 42 46 45 40 39 41 40 39 39 39 39 37 35 36 39 40 39 38 38 37 36
61 60 60 59 58 57 56 55 55 54 53 52 51 50 49 48 47 46 46 45 45 46 45 43 40 40 40 39 39 42 43 43 43 41 40 40 42 42 43 42 41 39 38 43 44 39 37 37 38 39 40 39 38 40 36 34 34 37 40 40 39 38 38
61 60 59 58 58 57 56 55 54 54 53 52 51 50 49 48 47 46 46 45 45 45 45 42 40 39 39 39 39 41 44 43 42 41 40 41 43 42 41 40 38 37 36 37 40 37 35 35 36 36 35 35 35 36 38 38 38 36 39 40 39 38 40
61 60 59 58 57 57 56 55 54 54 53 52 51 51 49 48 47 46 46 45 45 45 45 40 39 39 39 39 39 45 43 43 42 41 41 42 42 41 40 38 37 36 35 35 39 35 36 35 34 34 34 35 38 41 42 43 40 39 39 39 39 39 39
60 59 58 57 57 56 56 55 54 53 52 52 51 50 49 48 47 46 45 45 45 45 45 41 39 39 38 38 41 45 44 43 42 41 40 42 40 39 39 38 37 35 33 32 36 33 34 36 35 36 36 38 41 42 42 43 40 38 39 38 36 36 35
60 59 58 57 56 56 56 55 54 53 52 51 51 49 49 48 47 46 45 45 44 44 44 42 39 39 38 38 42 45 43 43 42 41 40 40 39 39 38 42 40 34 31 30 35 33 34 36 35 37 38 39 39 40 40 40 39 40 38 38 38 37 36
60 59 58 57 56 55 55 55 54 53 52 51 50 49 48 48 46 46 45 45 47 45 44 43 39 38 38 39 42 45 45 43 43 41 40 40 41 39 38 42 43 37 32 33 35 33 34 38 37 38 39 39 38 38 38 38 36 35 36 36 36 37 38
59 58 57 57 56 55 55 54 53 53 52 52 50 49 48 48 47 46 46 45 46 45 44 43 41 38 38 39 41 44 43 43 42 42 41 40 40 40 39 39 42 36 33 34 36 35 34 36 37 38 38 37 37 37 38 38 37 36 37 38 38 39 39
59 58 58 57 56 55 55 54 53 53 52 51 50 49 49 48 47 47 46 45 45 44 44 43 42 38 38 39 40 42 44 42 42 42 41 41 40 40 40 40 40 40 34 35 36 37 36 36 37 38 38 37 38 39 39 38 39 40 38 39 39 39 38
59 58 58 57 56 55 55 54 53 53 53 52 50 49 48 48 47 46 46 45 45 44 46 44 43 39 38 38 39 41 43 42 42 42 42 41 41 41 41 41 40 40 37 35 36 36 37 37 37 41 39 35 35 36 39 40 39 40 39 37 35 34 35
58 58 57 56 56 54 54 53 52 52 52 51 50 49 48 47 47 46 45 44 45 45 45 45 41 41 38 38 38 40 40 41 38 43 42 41 42 42 42 43 42 41 37 37 36 36 36 37 38 39 37 35 34 35 37 39 37 38 36 35 34 34 33
58 58 56 56 55 54 53 52 52 51 51 50 50 49 48 48 47 46 45 45 44 44 44 45 41 40 40 38 38 39 39 38 38 41 42 42 43 43 44 44 42 39 38 38 37 37 37 37 37 36 35 35 34 35 39 37 35 35 34 32 32 32 32

ECMWFFLT1_sfc_dewp_141.txt.gz
Dewpoint
65 65 66 67 67 67 66 67 67 67 67 67 67 67 68 67 67 67 66 66 65 64 63 63 62 61 60 60 60 60 60 58 58 56 55 54 52 51 55 54 56 54 51 47 47 41 41 38 38 41 45 48 48 47 43 38 36 39 42 41 35 37 38
66 66 66 66 66 67 66 66 66 66 66 67 67 67 68 67 66 66 66 66 65 64 62 63 64 63 61 61 60 60 60 58 58 59 57 54 55 55 53 54 54 50 46 48 46 43 37 38 35 36 38 44 47 48 47 45 41 42 39 39 37 38 41
66 66 66 66 66 66 66 65 66 66 66 66 67 67 67 66 66 66 66 65 65 65 62 63 63 62 62 61 61 61 60 59 59 59 59 58 57 58 54 54 52 51 50 48 44 42 42 42 37 31 38 40 39 43 48 45 43 41 40 43 41 35 38
66 66 66 66 65 65 65 65 65 65 66 66 66 66 67 66 66 66 66 65 65 65 64 63 63 61 64 63 62 61 61 61 58 58 58 58 57 57 55 54 52 51 51 51 50 45 45 42 39 38 38 33 33 44 44 45 43 40 37 40 39 39 40
66 65 65 65 65 65 65 64 64 65 65 66 66 65 66 65 66 65 65 65 64 65 64 63 63 63 63 61 60 60 60 60 60 58 58 56 57 57 56 55 54 54 54 53 53 51 48 46 45 45 39 36 35 34 39 44 40 37 35 36 36 38 38
65 65 65 65 65 65 64 64 64 63 64 64 65 65 65 65 65 66 64 64 64 64 64 64 65 63 60 61 60 60 60 59 59 58 56 57 58 57 55 56 55 55 54 55 56 54 51 51 48 46 41 39 36 36 34 36 36 35 36 36 34 34 34
65 66 65 64 65 65 65 64 64 64 63 65 64 64 64 64 64 65 64 64 64 64 63 63 61 61 60 59 60 60 59 60 59 59 57 58 59 59 59 56 55 54 54 56 55 54 52 50 48 47 44 41 42 35 32 32 33 31 33 34 34 34 34
65 65 66 65 65 65 65 64 64 65 64 64 64 65 63 63 64 63 64 64 63 63 61 61 61 60 60 58 58 58 58 58 58 58 58 58 57 57 57 56 56 55 55 54 53 53 51 51 50 49 44 42 40 37 33 30 31 32 33 34 34 33 34
66 66 66 66 65 65 65 65 65 65 65 65 65 64 63 63 62 62 63 63 61 61 60 60 59 58 58 58 56 57 56 54 57 57 58 57 57 57 57 56 55 53 54 52 51 52 49 50 50 50 46 43 39 36 37 35 33 31 33 33 34 34 34
66 66 65 66 66 66 66 65 65 65 65 65 63 63 62 62 62 62 61 61 60 62 60 60 60 58 57 57 56 56 55 54 55 55 56 56 57 56 55 55 53 53 51 53 51 51 52 51 49 48 45 43 42 38 37 35 36 34 33 33 32 32 34
65 66 66 65 65 66 65 65 65 64 64 63 62 62 62 61 61 61 61 60 60 60 60 58 58 57 57 58 56 55 55 54 54 55 55 54 55 54 53 52 51 49 50 50 50 51 51 51 48 48 47 45 44 40 39 36 37 38 36 37 35 31 32
65 65 65 66 65 65 64 64 64 64 64 62 61 61 61 60 60 60 60 59 59 58 58 57 57 56 56 55 55 55 53 53 52 52 53 53 52 52 51 51 50 49 49 50 49 48 50 48 47 46 47 47 46 47 44 39 35 40 41 39 38 34 31
64 64 65 65 64 64 64 64 63 64 63 61 61 60 60 59 59 59 59 58 58 57 56 56 56 56 56 55 54 52 52 52 50 51 50 49 48 49 49 48 48 47 47 46 46 47 46 48 48 45 46 45 46 46 45 41 37 40 40 41 40 36 32
65 65 65 65 64 65 64 64 64 64 62 61 61 60 59 59 58 58 57 57 56 56 56 56 56 56 55 54 53 52 51 49 48 49 49 49 47 48 47 45 45 47 46 45 44 44 42 43 45 46 45 43 43 45 42 41 37 42 41 43 41 36 34
65 65 65 65 64 64 64 63 63 62 62 61 60 59 58 59 58 57 56 56 56 55 55 54 55 54 53 53 53 51 51 48 48 48 48 46 46 48 49 44 43 44 44 42 42 37 37 38 36 37 42 42 40 43 45 39 39 39 40 41 39 39 37
64 65 65 64 64 64 64 63 62 62 61 60 59 59 58 58 57 56 56 56 55 54 54 53 54 53 53 52 50 50 50 49 49 48 48 47 44 45 45 46 44 45 46 44 44 43 43 39 37 38 40 40 42 43 42 43 41 40 40 38 40 37 36
65 64 64 64 64 64 63 62 61 61 60 60 58 58 58 56 56 56 56 54 54 54 53 54 53 52 51 50 49 49 48 49 49 48 47 45 44 44 44 44 45 45 44 44 42 43 42 42 40 38 38 40 42 41 43 43 42 42 40 38 39 33 35
64 64 64 64 64 64 63 62 61 60 60 59 58 57 56 55 55 54 55 54 53 53 53 52 51 51 52 51 49 49 47 47 48 47 47 46 45 44 44 44 43 43 44 43 44 41 41 43 38 38 38 36 36 41 43 42 41 42 40 38 38 37 38
64 63 63 63 64 63 63 61 60 60 59 58 58 56 55 54 53 53 54 53 52 52 51 51 51 50 49 50 50 49 48 48 47 46 46 46 45 45 45 44 44 43 42 43 43 44 43 42 40 39 38 35 35 41 42 42 42 41 40 39 39 35 37
63 63 63 63 63 62 62 61 60 59 59 58 57 56 54 54 54 53 53 52 52 52 51 50 50 50 49 48 48 48 48 48 47 47 46 45 45 45 44 44 45 44 43 43 44 44 44 45 43 41 41 42 40 44 45 39 37 39 38 38 37 36 33
63 63 63 63 62 62 62 61 60 60 59 58 57 55 54 53 53 52 52 52 52 51 51 50 49 49 48 48 48 48 47 48 46 46 47 45 45 45 45 44 44 44 43 43 44 44 44 44 43 42 45 47 47 42 38 38 39 36 37 37 33 31 34
63 63 63 62 62 62 62 61 60 59 59 58 57 55 54 53 52 51 51 52 51 51 50 50 49 50 49 48 48 48 47 46 46 45 45 45 45 44 44 45 44 44 45 46 47 47 47 47 45 45 47 44 40 39 39 38 37 36 36 35 33 35 33
63 63 62 62 61 61 60 60 60 59 58 57 57 55 53 53 52 51 50 50 50 51 51 50 50 48 48 48 48 46 49 48 46 46 45 45 45 44 44 45 46 46 47 48 46 44 42 43 46 44 43 43 40 40 39 38 36 35 35 32 31 32 32
63 62 62 61 61 61 60 59 59 58 58 57 56 54 53 51 51 51 50 50 50 51 50 48 45 42 42 45 48 49 48 48 46 46 46 46 44 44 45 43 45 47 47 47 46 42 41 41 41 41 43 44 45 41 40 38 37 38 34 32 34 34 33
62 62 62 61 61 60 60 59 58 58 58 57 56 54 53 51 51 51 51 50 51 51 51 46 41 41 41 42 46 49 48 47 47 46 45 45 44 44 44 45 46 47 46 45 44 43 42 41 39 39 38 38 36 35 38 40 39 37 38 34 34 33 34
62 62 62 61 61 60 59 59 59 59 58 57 55 53 53 52 52 52 51 50 51 51 51 42 41 41 41 41 42 46 47 47 47 46 46 45 44 44 44 45 46 48 48 49 45 44 42 42 41 40 40 39 38 35 33 34 37 42 39 37 33 34 33
62 62 62 61 61 59 59 59 59 59 57 56 54 54 54 53 52 51 51 51 51 51 51 43 40 40 40 40 40 43 47 48 47 46 46 45 46 46 45 45 45 47 47 46 45 43 42 42 43 42 41 40 38 40 36 36 36 37 42 38 34 33 40
62 62 61 61 60 60 59 59 58 58 56 55 55 54 54 53 52 51 51 52 51 51 51 42 40 40 39 39 39 42 49 49 48 47 47 47 46 47 47 47 48 45 46 46 46 43 42 42 42 42 41 39 39 38 36 38 40 40 41 42 43 42 44
62 62 61 60 60 59 59 58 57 57 56 56 55 55 54 53 52 51 51 51 51 51 51 40 39 39 39 39 39 46 48 48 47 46 47 47 47 47 47 48 46 45 46 44 45 39 40 41 41 39 37 36 36 39 40 44 39 39 44 44 44 44 44
62 61 61 60 59 59 58 58 58 57 56 55 55 54 54 53 52 51 51 50 50 50 50 42 39 39 39 39 41 46 48 45 46 46 46 47 46 47 47 45 45 44 44 43 41 35 36 39 39 38 35 36 38 38 38 41 42 40 39 38 38 36 35
61 61 61 60 59 59 59 58 58 57 56 55 55 54 54 53 52 51 51 50 51 51 50 44 39 39 39 39 43 47 46 45 46 46 46 47 46 45 45 46 45 44 44 42 36 34 34 37 38 37 37 38 38 38 40 44 44 44 38 38 38 37 36
61 61 60 60 59 59 59 58 57 56 56 56 56 55 53 52 51 51 51 51 50 50 50 45 39 39 39 39 44 48 45 45 46 45 44 45 46 44 45 44 45 43 44 42 34 34 34 36 37 37 37 37 37 39 41 44 43 42 43 44 46 44 43
61 61 60 59 59 59 59 58 57 56 56 55 55 54 52 52 51 50 51 51 50 50 50 47 42 38 39 39 42 47 46 44 44 45 44 43 44 44 43 43 43 39 36 35 34 33 33 34 36 38 38 37 39 39 42 43 42 41 40 40 42 43 42
61 61 60 60 60 59 58 58 57 57 56 55 55 54 53 52 51 51 51 50 50 50 50 48 43 38 39 39 40 43 46 46 45 45 44 43 42 43 42 41 42 40 36 34 34 33 33 33 35 39 41 39 40 43 41 40 43 42 41 41 41 40 39
61 61 60 60 60 59 59 58 57 57 56 56 55 54 53 51 51 51 50 50 49 49 48 46 44 39 38 39 40 41 46 47 46 45 44 43 42 42 42 42 42 41 36 34 34 34 33 33 34 39 41 36 36 35 39 39 41 41 40 39 36 35 37
61 61 60 60 59 59 59 58 58 57 57 56 55 54 53 53 51 50 49 49 49 49 48 46 42 42 38 38 39 40 42 44 40 46 45 44 43 43 44 44 44 40 36 34 34 35 34 33 35 37 35 36 35 35 37 37 38 39 38 37 37 36 36
61 61 60 60 59 59 58 57 57 57 56 55 54 53 52 52 52 50 49 49 48 48 47 47 42 41 40 38 38 39 39 40 40 46 46 46 45 45 44 45 44 38 37 35 34 34 35 35 36 34 34 35 35 35 37 38 37 38 37 37 36 36 36